Cedar City, UT

9:52 AM MDT on May 25, 2017 (GMT -0600)
Cedar City Regional

Weather History for KCDC - April, 2014

Change the Weather History Date:

Sunday, April 13, 2014

  Actual Average Record
Temperature  
Mean Temperature 49 °F 46 °F  
Max Temperature 55 °F 61 °F 80 °F (1962)
Min Temperature 43 °F 31 °F 17 °F (1991)
Degree Days  
Heating Degree Days 16 19  
Month to date heating degree days 234 270  
Since 1 July heating degree days 5551 5604  
Cooling Degree Days 0 0  
Month to date cooling degree days 0 0  
Year to date cooling degree days 0 0  
Moisture  
Dew Point 24 °F    
Average Humidity 51    
Maximum Humidity 82    
Minimum Humidity 19    
Precipitation  
Precipitation T in 0.03 in 0.36 in (1961)
Month to date precipitation T 0.52  
Year to date precipitation 1.36 3.73  
Sea Level Pressure  
Sea Level Pressure 29.79 in    
Wind  
Wind Speed 12 mph (NNE)    
Max Wind Speed 26 mph    
Max Gust Speed 35 mph    
Visibility 10 miles    
Events Thunderstorm    
T = Trace of Precipitation, MM = Missing Value Source: NWS Daily Summary

Daily Weather History Graph

Daily Weather History Graph

Search for Another Location

Airport or City:

Trip Planner

Search our weather history database for the weather conditions in past years. The results will help you decide how hot, cold, wet, or windy it might be!

Date:

Astronomy

Apr. 13, 2014 Rise Set
Actual Time 7:00 AM MDT 8:06 PM MDT
Civil Twilight 6:33 AM MDT 8:33 PM MDT
Nautical Twilight 6:01 AM MDT 9:05 PM MDT
Astronomical Twilight 5:27 AM MDT 9:38 PM MDT
Moon 6:49 PM MDT (4/13) 5:59 AM MDT (4/13)
Length of Visible Light 14h 00m
Length of Day
13h 06m
Waxing Gibbous, 97% of the Moon is Illuminated
Apr 13
Waxing Gibbous
Apr 15
Full
Apr 22
Last Quarter
Apr 29
New
May 6
First Quarter

Hourly Weather History & Observations

Time (MDT) Temp. Windchill Dew Point Humidity Pressure Visibility Wind Dir Wind Speed Gust Speed Precip Events Conditions
12:53 AM 52.0 °F - 15.1 °F 23% 29.58 in 10.0 mi South 6.9 mph - N/A   Clear
1:53 AM 46.9 °F - 15.1 °F 28% 29.58 in 10.0 mi SSW 6.9 mph - N/A   Scattered Clouds
2:53 AM 52.0 °F - 15.1 °F 23% 29.54 in 10.0 mi SW 10.4 mph - N/A   Overcast
3:53 AM 52.0 °F - 19.0 °F 27% 29.57 in 10.0 mi NNW 8.1 mph - N/A   Mostly Cloudy
4:41 AM 48.9 °F - 21.0 °F 33% 29.75 in 10.0 mi West 3.5 mph - N/A Thunderstorm Mostly Cloudy
4:53 AM 51.1 °F - 21.9 °F 32% 29.60 in 10.0 mi WNW 12.7 mph - N/A   Overcast
5:17 AM 48.0 °F - 35.1 °F 61% 29.81 in 10.0 mi North 17.3 mph 24.2 mph N/A   Mostly Cloudy
5:53 AM 48.0 °F - 36.0 °F 63% 29.64 in 10.0 mi ENE 13.8 mph - N/A   Overcast
6:16 AM 48.9 °F - 35.1 °F 59% 29.81 in 10.0 mi North 5.8 mph - N/A Thunderstorm Overcast
6:49 AM 46.4 °F 44.3 °F 37.4 °F 71% 29.81 in 10.0 mi ESE 4.6 mph - 0.00 in   Mostly Cloudy
6:53 AM 46.9 °F - 37.0 °F 68% 29.66 in 10.0 mi SSE 3.5 mph - 0.00 in   Mostly Cloudy
7:53 AM 44.1 °F 39.0 °F 37.0 °F 76% 29.70 in 10.0 mi North 9.2 mph - N/A   Mostly Cloudy
8:53 AM 46.9 °F - 30.0 °F 52% 29.75 in 10.0 mi North 15.0 mph - N/A   Mostly Cloudy
9:53 AM 48.9 °F - 25.0 °F 39% 29.77 in 10.0 mi North 11.5 mph - N/A   Clear
10:53 AM 52.0 °F - 23.0 °F 32% 29.78 in 10.0 mi Calm Calm - N/A   Clear
11:53 AM 53.1 °F - 26.1 °F 35% 29.79 in 10.0 mi NNE 11.5 mph 16.1 mph N/A   Scattered Clouds
12:53 PM 54.0 °F - 24.1 °F 31% 29.79 in 10.0 mi NE 15.0 mph 20.7 mph N/A   Partly Cloudy
1:53 PM 54.0 °F - 21.9 °F 29% 29.82 in 10.0 mi NNE 18.4 mph 25.3 mph N/A   Partly Cloudy
2:53 PM 51.1 °F - 18.0 °F 27% 29.83 in 10.0 mi North 19.6 mph 24.2 mph N/A   Overcast
3:53 PM 54.0 °F - 16.0 °F 22% 29.84 in 10.0 mi North 20.7 mph 27.6 mph N/A   Mostly Cloudy
4:53 PM 53.1 °F - 14.0 °F 21% 29.85 in 10.0 mi North 18.4 mph 28.8 mph N/A   Partly Cloudy
6:53 PM 50.0 °F - 12.9 °F 23% 29.92 in 10.0 mi NNE 23.0 mph 34.5 mph N/A   Mostly Cloudy
7:53 PM 46.0 °F 37.6 °F 18.0 °F 33% 29.98 in 10.0 mi NNE 24.2 mph 32.2 mph N/A   Clear
8:53 PM 42.1 °F 36.1 °F 19.0 °F 40% 30.01 in 10.0 mi NNE 10.4 mph - N/A   Clear
9:53 PM 42.1 °F 34.9 °F 19.9 °F 41% 30.04 in 10.0 mi NE 13.8 mph - N/A   Clear
10:53 PM 41.0 °F 34.7 °F 21.9 °F 47% 30.07 in 10.0 mi NE 10.4 mph - N/A   Clear
11:53 PM 37.9 °F 32.1 °F 21.0 °F 51% 30.10 in 10.0 mi NNE 8.1 mph - N/A   Clear